Location: San Antonio
(29.4240°N, 98.4930°W)
Time: 16:33:54
(UTC-05:00)

BlueWalker 3 - Pass Details

Date: 18 June 2024
Orbit: 480 x 492 km, 53.2° (Epoch: 11 July)

Event Time Altitude Azimuth Distance (km) Brightness Sun altitude
Rises 21:21:29 0° 213° (SSW) 2,531 5.5 -9.3°
Reaches altitude 10° 21:23:39 10° 210° (SSW) 1,652 4.5 -9.7°
Maximum altitude 21:27:20 61° 129° (SE) 548 1.8 -10.3°
Drops below altitude 10° 21:31:01 10° 49° (NE) 1,654 4.4 -11.0°
Sets 21:33:11 0° 46° (NE) 2,534 5.4 -11.4°
